Location: Exeidioux
(45.6312°N, 1.6819°E)
Time: 14:24:54
(UTC+00:00)

Cosmos 2278 Rocket - Pass Details

Date: 03 March 2021
Orbit: 841 x 845 km, 71.0° (Epoch: 15 April)

Event Time Altitude Azimuth Distance (km) Brightness Sun altitude
Rises 20:23:42 0° 335° (NNW) 3,414 6.0 -28.4°
Reaches altitude 10° 20:26:11 10° 338° (NNW) 2,475 5.1 -28.8°
Enters shadow 20:30:37 52° 5° (N) 1,044 2.6 -29.5°
